• în România
  • Lista ţărilor
  • Pe 7 zile
  • Temperatura apei
  • Hartă satelitară
  • Meteo pe hartă
  • Widget-uri
  • user-avatar
    Intrare

    Meteo pe oră la Medulin

    Astăzi, 26 Februarie, Luni

    Timp Temperatura Precipitaţii Vânt Presiune Umiditate
    00:00 -7°C° 0 mm 8 m/s 754 mmHg 63%
    01:00 -7°C° 0 mm 8 m/s 753 mmHg 63%
    02:00 -7°C° 0 mm 8 m/s 753 mmHg 63%
    03:00 -7°C° 0 mm 8 m/s 753 mmHg 64%
    04:00 -7°C° 0 mm 8 m/s 752 mmHg 64%
    05:00 -7°C° 0 mm 7 m/s 752 mmHg 63%
    06:00 -7°C° 0 mm 7 m/s 752 mmHg 63%
    07:00 -8°C° 0 mm 7 m/s 751 mmHg 63%
    08:00 -7°C° 0 mm 7 m/s 751 mmHg 62%
    09:00 -6°C° 0 mm 7 m/s 751 mmHg 61%
    10:00 -6°C° 0 mm 7 m/s 751 mmHg 60%
    11:00 -4°C° 0,1 mm 7 m/s 751 mmHg 61%
    12:00 -4°C° 0,1 mm 7 m/s 750 mmHg 61%
    13:00 -3°C° 0,1 mm 7 m/s 750 mmHg 62%
    14:00 -4°C° 0,3 mm 6 m/s 750 mmHg 65%
    15:00 -4°C° 0,3 mm 6 m/s 750 mmHg 69%
    16:00 -4°C° 0,3 mm 6 m/s 750 mmHg 72%
    17:00 -4°C° 0,3 mm 6 m/s 750 mmHg 73%
    18:00 -4°C° 0,3 mm 6 m/s 750 mmHg 73%
    19:00 -4°C° 0,3 mm 6 m/s 750 mmHg 74%
    20:00 -5°C° 0,2 mm 6 m/s 750 mmHg 73%
    21:00 -5°C° 0,2 mm 6 m/s 750 mmHg 73%
    22:00 -5°C° 0,2 mm 6 m/s 750 mmHg 72%
    23:00 -5°C° 0,1 mm 6 m/s 750 mmHg 71%

    Mâine, 27 Februarie, Marţi

    Timp Temperatura Precipitaţii Vânt Presiune Umiditate
    00:00 -5°C° 0,1 mm 6 m/s 750 mmHg 70%
    01:00 -5°C° 0,1 mm 6 m/s 750 mmHg 70%
    02:00 -5°C° 0,1 mm 6 m/s 750 mmHg 70%
    03:00 -5°C° 0,1 mm 6 m/s 750 mmHg 70%
    04:00 -6°C° 0,1 mm 6 m/s 750 mmHg 71%
    05:00 -6°C° 0,1 mm 6 m/s 750 mmHg 71%
    06:00 -6°C° 0,1 mm 6 m/s 750 mmHg 70%
    07:00 -7°C° 0,1 mm 7 m/s 751 mmHg 70%
    08:00 -6°C° 0 mm 6 m/s 751 mmHg 67%
    09:00 -5°C° 0 mm 6 m/s 752 mmHg 65%
    10:00 -5°C° 0 mm 5 m/s 752 mmHg 62%
    11:00 -4°C° 0 mm 5 m/s 752 mmHg 60%
    12:00 -2°C° 0 mm 4 m/s 752 mmHg 58%
    13:00 -1°C° 0 mm 3 m/s 753 mmHg 56%
    14:00 -1°C° 0 mm 3 m/s 753 mmHg 56%
    15:00 -1°C° 0 mm 3 m/s 753 mmHg 55%
    16:00 -1°C° 0 mm 3 m/s 753 mmHg 55%
    17:00 -2°C° 0 mm 3 m/s 754 mmHg 59%
    18:00 -4°C° 0 mm 3 m/s 754 mmHg 63%
    19:00 -5°C° 0 mm 4 m/s 755 mmHg 66%
    20:00 -5°C° 0 mm 4 m/s 755 mmHg 67%
    21:00 -5°C° 0 mm 4 m/s 755 mmHg 67%
    22:00 -7°C° 0 mm 4 m/s 756 mmHg 68%
    23:00 -7°C° 0 mm 4 m/s 756 mmHg 67%

    Poimâine, 28 Februarie, Miercuri

    Timp Temperatura Precipitaţii Vânt Presiune Umiditate
    00:00 -7°C° 0 mm 4 m/s 756 mmHg 67%
    01:00 -8°C° 0 mm 4 m/s 756 mmHg 67%
    02:00 -8°C° 0 mm 5 m/s 756 mmHg 67%
    03:00 -8°C° 0 mm 5 m/s 756 mmHg 67%
    04:00 -10°C° 0 mm 5 m/s 756 mmHg 66%
    05:00 -10°C° 0 mm 5 m/s 757 mmHg 66%
    06:00 -10°C° 0 mm 5 m/s 757 mmHg 66%
    07:00 -10°C° 0 mm 6 m/s 758 mmHg 66%
    08:00 -9°C° 0 mm 6 m/s 758 mmHg 62%
    09:00 -8°C° 0 mm 6 m/s 758 mmHg 59%
    10:00 -5°C° 0 mm 6 m/s 759 mmHg 55%
    11:00 -4°C° 0 mm 5 m/s 759 mmHg 53%
    12:00 -4°C° 0 mm 5 m/s 759 mmHg 51%
    13:00 -2°C° 0 mm 5 m/s 759 mmHg 48%
    14:00 -2°C° 0 mm 5 m/s 759 mmHg 49%
    15:00 -2°C° 0 mm 4 m/s 760 mmHg 51%
    16:00 -2°C° 0 mm 4 m/s 760 mmHg 52%
    17:00 -3°C° 0 mm 4 m/s 760 mmHg 56%
    18:00 -4°C° 0 mm 4 m/s 761 mmHg 60%
    19:00 -5°C° 0 mm 4 m/s 761 mmHg 64%
    20:00 -7°C° 0 mm 4 m/s 762 mmHg 64%
    21:00 -7°C° 0 mm 4 m/s 762 mmHg 64%
    22:00 -6°C° 0 mm 3 m/s 763 mmHg 64%
    23:00 -7°C° 0 mm 3 m/s 763 mmHg 63%

    1 Martie, Joi

    Timp Temperatura Precipitaţii Vânt Presiune Umiditate
    00:00 -7°C° 0 mm 3 m/s 763 mmHg 62%
    01:00 -7°C° 0 mm 3 m/s 762 mmHg 61%
    02:00 -6°C° 0 mm 3 m/s 762 mmHg 59%
    03:00 -6°C° 0 mm 3 m/s 762 mmHg 57%
    04:00 -6°C° 0 mm 3 m/s 761 mmHg 55%
    05:00 -5°C° 0 mm 3 m/s 761 mmHg 53%
    06:00 -5°C° 0 mm 3 m/s 761 mmHg 51%
    07:00 -5°C° 0 mm 4 m/s 761 mmHg 49%
    08:00 -3°C° 0 mm 4 m/s 761 mmHg 47%
    09:00 -1°C° 0 mm 4 m/s 760 mmHg 45%
    10:00 +1°C° 0 mm 4 m/s 760 mmHg 43%
    11:00 +2°C° 0,1 mm 5 m/s 760 mmHg 46%
    12:00 +2°C° 0,1 mm 5 m/s 759 mmHg 49%
    13:00 +3°C° 0,1 mm 6 m/s 759 mmHg 53%
    14:00 +2°C° 0,4 mm 6 m/s 758 mmHg 60%
    15:00 +2°C° 0,4 mm 6 m/s 757 mmHg 68%
    16:00 +2°C° 0,4 mm 6 m/s 757 mmHg 76%
    17:00 +2°C° 0,6 mm 6 m/s 757 mmHg 79%
    18:00 +2°C° 0,6 mm 7 m/s 756 mmHg 82%
    19:00 +2°C° 0,6 mm 7 m/s 756 mmHg 86%
    20:00 +2°C° 0,6 mm 7 m/s 756 mmHg 86%
    21:00 +2°C° 0,6 mm 7 m/s 755 mmHg 87%
    22:00 +2°C° 0,6 mm 7 m/s 755 mmHg 87%
    23:00 +3°C° 0,6 mm 7 m/s 754 mmHg 88%

    2 Martie, Vineri

    Timp Temperatura Precipitaţii Vânt Presiune Umiditate
    00:00 +3°C° 0,6 mm 7 m/s 754 mmHg 88%
    01:00 +3°C° 0,6 mm 7 m/s 753 mmHg 88%
    02:00 +4°C° 0,9 mm 7 m/s 752 mmHg 89%
    03:00 +4°C° 0,9 mm 7 m/s 752 mmHg 90%
    04:00 +4°C° 0,9 mm 7 m/s 751 mmHg 91%
    05:00 +4°C° 0,8 mm 6 m/s 751 mmHg 91%
    06:00 +5°C° 0,8 mm 6 m/s 750 mmHg 91%
    07:00 +5°C° 0,8 mm 6 m/s 750 mmHg 91%
    08:00 +6°C° 0,6 mm 5 m/s 750 mmHg 90%
    09:00 +6°C° 0,6 mm 5 m/s 750 mmHg 90%
    10:00 +7°C° 0,6 mm 4 m/s 750 mmHg 90%
    11:00 +7°C° 0,3 mm 4 m/s 750 mmHg 89%
    12:00 +7°C° 0,3 mm 4 m/s 750 mmHg 88%
    13:00 +7°C° 0,3 mm 4 m/s 750 mmHg 88%
    14:00 +7°C° 0,1 mm 4 m/s 750 mmHg 87%
    15:00 +8°C° 0,1 mm 3 m/s 750 mmHg 86%
    16:00 +8°C° 0,1 mm 3 m/s 750 mmHg 85%
    17:00 +8°C° 0 mm 3 m/s 750 mmHg 85%
    18:00 +7°C° 0 mm 3 m/s 751 mmHg 85%
    19:00 +7°C° 0 mm 3 m/s 751 mmHg 85%
    20:00 +7°C° 0 mm 3 m/s 751 mmHg 85%
    21:00 +7°C° 0 mm 3 m/s 751 mmHg 85%
    22:00 +7°C° 0 mm 2 m/s 751 mmHg 85%
    23:00 +7°C° 0 mm 2 m/s 751 mmHg 85%

    3 Martie, Sâmbătă

    Timp Temperatura Precipitaţii Vânt Presiune Umiditate
    00:00 +6°C° 0 mm 2 m/s 751 mmHg 85%
    01:00 +6°C° 0 mm 2 m/s 751 mmHg 85%
    02:00 +6°C° 0 mm 2 m/s 751 mmHg 85%
    03:00 +6°C° 0 mm 2 m/s 751 mmHg 86%
    04:00 +6°C° 0 mm 2 m/s 751 mmHg 86%
    05:00 +6°C° 0 mm 2 m/s 751 mmHg 86%
    06:00 +7°C° 0 mm 1 m/s 751 mmHg 86%
    07:00 +7°C° 0 mm 1 m/s 751 mmHg 86%
    08:00 +9°C° 0 mm 1 m/s 751 mmHg 84%
    09:00 +10°C° 0 mm 1 m/s 751 mmHg 82%
    10:00 +11°C° 0 mm 1 m/s 752 mmHg 79%
    11:00 +11°C° 0 mm 1 m/s 751 mmHg 79%
    12:00 +12°C° 0 mm 1 m/s 751 mmHg 79%
    13:00 +12°C° 0 mm 1 m/s 751 mmHg 79%
    14:00 +12°C° 0,2 mm 1 m/s 751 mmHg 80%
    15:00 +11°C° 0,2 mm 1 m/s 751 mmHg 82%
    16:00 +11°C° 0,2 mm 1 m/s 751 mmHg 84%
    17:00 +11°C° 0,3 mm 1 m/s 751 mmHg 86%
    18:00 +10°C° 0,3 mm 1 m/s 751 mmHg 89%
    19:00 +10°C° 0,3 mm 1 m/s 752 mmHg 91%
    20:00 +9°C° 0,2 mm 1 m/s 752 mmHg 91%
    21:00 +9°C° 0,2 mm 1 m/s 752 mmHg 91%
    22:00 +9°C° 0,2 mm 1 m/s 752 mmHg 92%
    23:00 +8°C° 0,1 mm 2 m/s 752 mmHg 91%
    Arată mai mult